Location: Caltech
(34.1382°N, 118.1253°W)
Time: 04:40:15
(UTC-08:00)

Cosmos 1943 Rocket - Visible Passes

Search period start: 03 March 2015 00:00
Search period end: 13 March 2015 01:00
Orbit: 813 x 843 km, 71.0° (Epoch: 02 March)

Date Brightness Start Highest point End Pass type
(mag) Time Alt. Az. Time Alt. Az. Time Alt. Az.
03 Mar 2.1 19:32:45 10° NNW 19:38:23 89° WSW 19:41:13 31° SSE visible
04 Mar 2.1 19:13:40 10° NNW 19:19:17 80° ENE 19:24:17 13° SSE visible
04 Mar 5.1 21:01:31 10° W 21:02:28 10° W 21:02:58 10° WSW visible
05 Mar 2.1 18:54:36 10° NNW 19:00:12 69° ENE 19:05:49 10° SSE visible
05 Mar 5.0 20:41:03 10° WNW 20:43:27 12° W 20:45:28 10° WSW visible
06 Mar 2.2 18:35:34 10° NNW 18:41:06 60° ENE 18:46:40 10° SSE visible
06 Mar 4.9 20:21:17 10° WNW 20:24:25 15° W 20:27:14 10° SW visible
07 Mar 2.4 18:16:32 10° N 18:22:00 52° ENE 18:27:29 10° SE visible
07 Mar 4.8 20:01:43 10° WNW 20:05:23 17° W 20:08:47 10° SW visible
08 Mar 4.7 20:42:16 10° NW 20:46:21 20° WSW 20:50:13 10° SW visible
09 Mar 4.5 20:22:53 10° NW 20:27:19 23° WSW 20:31:34 10° SSW visible
10 Mar 4.4 20:03:34 10° NW 20:08:16 27° WSW 20:12:51 10° SSW visible
11 Mar 4.2 19:44:18 10° NW 19:49:13 31° WSW 19:54:04 10° SSW visible
12 Mar 4.0 19:25:04 10° NW 19:30:10 36° WSW 19:35:14 10° SSW visible
